EW9577 Weather Reports


time (UTC)temp
C
wind
direction
speed
KPH
gust
KPH
rain 1hr
cm
rain 24hr
cm
rain mn
cm
humidity
%
barometer
mb
20260502183203 13 312 8.0 14.5 0.00 0.00 0.00 53 1016.6
20260502181703 13 286 11.3 22.5 0.00 0.00 0.00 48 1016.6
20260502180703 13 282 16.1 22.5 0.00 0.00 0.00 47 1016.8
20260502180203 13 314 9.7 22.5 0.00 0.00 0.00 49 1016.8
20260502170203 13 306 16.1 29.0 0.00 0.00 0.00 45 1017.0
20260502163703 12 279 11.3 22.5 0.00 0.00 0.00 51 1017.2
20260502163203 12 311 6.4 22.5 0.00 0.00 0.00 52 1017.1
20260502161703 13 348 6.4 19.3 0.00 0.00 0.00 47 1017.2
20260502161202 13 274 4.8 19.3 0.00 0.00 0.00 51 1017.3
20260502160704 13 287 8.0 12.9 0.00 0.00 0.00 50 1017.3
20260502160202 13 293 4.8 14.5 0.00 0.00 0.00 53 1017.2
20260502151202 13 262 9.7 14.5 0.00 0.00 0.00 55 1017.5
20260502150702 12 224 8.0 19.3 0.00 0.00 0.00 59 1017.5
20260502150203 12 348 4.8 19.3 0.00 0.00 0.00 60 1017.5
20260502130703 7 191 1.6 3.2 0.00 0.00 0.00 97 1017.9
20260502130203 7 31 0.0 0.0 0.00 0.00 0.00 97 1017.9
20260502123702 5 31 0.0 0.0 0.00 0.00 0.00 98 1017.8
20260502123204 5 31 0.0 0.0 0.00 0.00 0.00 98 1017.7
20260502121703 5 31 0.0 0.0 0.00 0.00 0.00 99 1017.7
20260502121203 5 31 0.0 0.0 0.00 0.00 0.00 99 1017.8
20260502120703 5 31 0.0 0.0 0.00 0.00 0.00 99 1017.7
20260502120203 4 31 0.0 0.0 0.00 0.00 0.00 99 1017.8
20260502114703 4 31 0.0 0.0 0.00 0.00 0.00 99 1017.7
20260502113704 3 31 0.0 0.0 0.00 0.00 0.00 99 1017.6
20260502113202 3 31 0.0 0.0 0.00 0.00 0.00 99 1017.7
20260502111703 3 68 1.6 8.0 0.00 0.00 0.00 98 1017.5
20260502110203 3 340 0.0 0.0 0.00 0.00 0.00 98 1017.3
20260502104204 4 340 0.0 1.6 0.00 0.00 0.00 98 1017.1
20260502103203 4 8 0.0 1.6 0.00 0.00 0.00 98 1017.2
20260502101204 4 41 0.0 0.0 0.00 0.00 0.00 98 1017.5
20260502100704 4 41 0.0 3.2 0.00 0.00 0.00 98 1017.5
20260502100203 4 41 0.0 3.2 0.00 0.00 0.00 98 1017.4
20260502091204 4 298 0.0 0.0 0.00 0.00 0.00 98 1017.6
20260502090703 4 298 0.0 0.0 0.00 0.00 0.00 98 1017.5
20260502090203 4 298 0.0 0.0 0.00 0.00 0.00 98 1017.7
20260502071203 3 298 0.0 0.0 0.00 0.00 0.00 98 1017.2
20260502070703 3 298 0.0 0.0 0.00 0.00 0.00 98 1017.2
20260502070203 3 298 0.0 0.0 0.00 0.00 0.00 98 1017.2
20260502064703 3 298 0.0 0.0 0.00 0.00 0.00 98 1017.3
20260502064203 3 298 0.0 0.0 0.00 0.00 0.00 97 1017.2
20260502063703 3 298 0.0 0.0 0.00 0.00 0.00 98 1017.2
20260502060703 3 298 0.0 0.0 0.00 0.00 0.00 97 1017.8
20260502060203 3 298 0.0 0.0 0.00 0.00 0.00 97 1017.8
20260502054703 4 298 0.0 0.0 0.00 0.00 0.00 96 1017.7
20260502054203 4 298 0.0 0.0 0.00 0.00 0.00 96 1017.9
20260502053703 4 298 0.0 0.0 0.00 0.00 0.00 96 1017.9
20260502053203 4 298 0.0 0.0 0.00 0.00 0.00 96 1017.9
20260502051703 5 298 0.0 0.0 0.00 0.00 0.00 96 1017.9
20260502050703 5 298 0.0 0.0 0.00 0.00 0.00 96 1017.9
20260502050203 5 298 0.0 0.0 0.00 0.00 0.00 96 1017.9
20260502044203 5 298 0.0 0.0 0.00 0.00 0.00 95 1018.0
20260502043703 5 298 0.0 0.0 0.00 0.00 0.00 95 1018.0
20260502043203 5 298 0.0 0.0 0.00 0.00 0.00 94 1018.1
20260502041703 6 298 0.0 0.0 0.00 0.00 0.00 94 1017.9
20260502041203 6 298 0.0 0.0 0.00 0.00 0.00 93 1017.9
20260502040703 6 298 0.0 0.0 0.00 0.00 0.00 93 1017.8
20260502040203 6 298 0.0 0.0 0.00 0.00 0.00 92 1017.9
20260502034703 6 298 0.0 0.0 0.00 0.00 0.00 91 1017.7
20260502034203 7 298 0.0 0.0 0.00 0.00 0.00 91 1017.6
20260502033203 7 298 0.0 0.0 0.00 0.00 0.00 90 1017.6
20260502031703 7 298 0.0 0.0 0.00 0.00 0.00 87 1017.8
20260502031203 7 298 0.0 0.0 0.00 0.00 0.00 87 1017.7
20260502030702 7 298 0.0 0.0 0.00 0.00 0.00 86 1017.8
20260502030203 7 298 0.0 0.0 0.00 0.00 0.00 85 1017.8
20260502024703 8 298 0.0 0.0 0.00 0.00 0.00 82 1017.8
20260502024204 8 298 0.0 0.0 0.00 0.00 0.00 81 1017.8
20260502023703 8 298 0.0 0.0 0.00 0.00 0.00 81 1017.8
20260502023204 8 298 0.0 0.0 0.00 0.00 0.00 80 1017.8
20260502021703 9 298 0.0 0.0 0.00 0.00 0.00 76 1017.4
20260502021203 10 298 0.0 0.0 0.00 0.00 0.00 75 1017.3
20260502020703 10 298 0.0 0.0 0.00 0.00 0.00 75 1017.2
20260502014703 10 1 1.6 9.7 0.00 0.00 0.00 71 1016.9
20260502014203 10 314 4.8 11.3 0.00 0.00 0.00 70 1016.8
20260502013202 11 308 8.0 16.1 0.00 0.00 0.00 70 1016.7
20260502011703 11 318 6.4 14.5 0.00 0.00 0.00 69 1016.5
20260502010203 11 306 9.7 22.5 0.00 0.00 0.00 69 1016.3
20260502004703 12 310 8.0 16.1 0.00 0.00 0.00 69 1015.7
20260502004203 12 334 8.0 22.5 0.00 0.00 0.00 68 1015.5
20260502003703 12 8 9.7 22.5 0.00 0.00 0.00 69 1015.4
20260502003203 12 316 9.7 20.9 0.00 0.00 0.00 69 1015.2
20260502001203 12 306 8.0 22.5 0.00 0.00 0.00 69 1015.1
20260502000703 12 317 11.3 22.5 0.00 0.00 0.00 69 1015.0
20260502000204 12 303 9.7 20.9 0.00 0.00 0.00 68 1014.9
20260501234703 13 330 6.4 14.5 0.00 0.00 0.00 68 1014.4
20260501234203 13 309 8.0 14.5 0.00 0.00 0.00 67 1014.2
20260501233703 13 293 8.0 14.5 0.00 0.00 0.00 67 1014.1
20260501233204 13 313 8.0 20.9 0.00 0.00 0.00 67 1013.9
20260501231703 13 299 8.0 12.9 0.00 0.00 0.00 68 1013.8
20260501231203 13 309 8.0 14.5 0.00 0.00 0.00 68 1013.9
20260501230703 13 318 8.0 16.1 0.00 0.00 0.00 70 1013.9
20260501223704 13 321 4.8 8.0 0.00 0.00 0.00 74 1013.8
20260501223203 13 18 1.6 4.8 0.00 0.00 0.00 75 1013.9
20260501221703 13 311 4.8 11.3 0.00 0.00 0.00 74 1013.7
20260501221204 13 313 8.0 11.3 0.00 0.00 0.00 74 1013.7
20260501220704 13 325 3.2 12.9 0.00 0.00 0.00 73 1013.6
20260501213703 14 257 14.5 22.5 0.00 0.00 0.00 64 1013.6
20260501213203 15 261 9.7 22.5 0.00 0.00 0.00 65 1013.5
20260501211703 15 297 11.3 24.1 0.00 0.00 0.00 64 1013.4
20260501211204 15 299 12.9 27.4 0.00 0.00 0.00 65 1013.4
20260501210704 16 278 14.5 27.4 0.00 0.00 0.00 64 1013.3
20260501210203 16 272 12.9 22.5 0.00 0.00 0.00 63 1013.3
20260501204204 15 305 20.9 35.4 0.00 0.00 0.00 66 1013.2
20260501203703 15 297 14.5 32.2 0.00 0.00 0.00 67 1013.0
20260501203203 15 296 12.9 22.5 0.00 0.00 0.00 67 1013.1
20260501201703 15 319 9.7 16.1 0.00 0.00 0.00 67 1012.8
20260501201203 16 307 9.7 16.1 0.00 0.00 0.00 66 1012.8
20260501200704 16 317 8.0 16.1 0.00 0.00 0.00 65 1012.7
20260501200203 16 325 8.0 14.5 0.00 0.00 0.00 65 1012.6
20260501194703 16 301 6.4 14.5 0.00 0.00 0.00 64 1012.6
20260501194203 16 264 8.0 19.3 0.00 0.00 0.00 63 1012.5
20260501193703 16 276 12.9 19.3 0.00 0.00 0.00 59 1012.5
20260501193204 17 285 9.7 16.1 0.00 0.00 0.00 58 1012.4
20260501191703 17 271 4.8 22.5 0.00 0.00 0.00 55 1012.4
20260501191203 17 268 4.8 22.5 0.00 0.00 0.00 52 1012.3
20260501190204 18 289 3.2 20.9 0.00 0.00 0.00 50 1012.3
20260501184704 20 222 11.3 24.1 0.00 0.00 0.00 43 1012.1
20260501183703 20 207 12.9 25.7 0.00 0.00 0.00 43 1012.1